Simultaneous Nadir Overpasses (SNOs) Predictions

Prediction of SNOs between GOES-15 and METOP-B Satellite Orbit:

Table of predicted SNOs for the next 14.0 days since TLE Epoch: 8/21/2021
Index Date Time (GOES-15) GOES-15 Lat,Lon METOP-B Lat,Lon Distance(km) Time Diff (sec)
1 08/22/2021 06:06:18 -0.01,-128.29 -0.05,-128.53 27.69 80
2 08/24/2021 18:04:30 0.01,-128.23 0.00,-128.09 16.52 80
3 08/26/2021 06:23:31 -0.04,-128.32 -1.04,-132.68 496.96 80
4 08/27/2021 06:00:12 -0.02,-128.33 0.12,-127.69 72.02 80
5 08/28/2021 18:21:43 0.05,-128.25 0.92,-132.25 454.37 80
6 08/29/2021 17:58:24 0.03,-128.26 -0.19,-127.25 114.75 80
7 08/31/2021 06:20:04 -0.07,-128.34 -0.86,-131.84 399.14 80
8 09/01/2021 05:56:46 -0.04,-128.34 0.31,-126.86 169.12 80
9 09/02/2021 18:18:16 0.08,-128.25 0.79,-131.40 358.80 80
10 09/03/2021 17:54:58 0.05,-128.25 -0.38,-126.41 209.52 80
